This demonstration page uses our WeatherBlox Daily Observations layout. Learn more.

41.55636, -103.73856

Hourly Observations for August 20, 2016

Temp ( °F °C ) Dew Point ( °F °C ) Humidity (%) Winds ( mph kmh ) Pressure ( in mb ) Visibility ( mi km ) Precip ( " mm )
12:53 am 00:53 Clear 47 8.3 44 6.7 90 90 WSW 5 7 30.13 1020 10 16.0934 0 0
1:53 am 01:53 Clear 47 8.3 44 6.7 90 90 WSW 3 6 30.14 1021 10 16.0934 0 0
2:53 am 02:53 Clear 46 7.8 43 6.1 89 89 NW 5 7 30.15 1021 10 16.0934 0 0
3:53 am 03:53 Clear 45 7.2 43 6.1 93 93 N 6 9 30.16 1021 10 16.0934 0 0
4:53 am 04:53 Clear 45 7.2 43 6.1 93 93 NNW 8 13 30.15 1021 10 16.0934 0 0
5:53 am 05:53 Clear 44 6.7 42 5.6 93 93 W 7 11 30.14 1021 10 16.0934 0 0
6:53 am 06:53 Sunny 45 7.2 43 6.1 93 93 WNW 6 9 30.14 1021 10 16.0934 0 0
7:53 am 07:53 Sunny 51 10.6 46 7.8 83 83 NW 6 9 30.11 1020 10 16.0934 0 0
8:53 am 08:53 Sunny 55 12.8 48 8.9 77 77 WNW 7 11 30.09 1019 10 16.0934 0 0
9:53 am 09:53 Sunny 59 15 48 8.9 67 67 NW 8 13 30.08 1019 10 16.0934 0 0
10:53 am 10:53 Sunny 63 17.2 46 7.8 54 54 WNW 9 15 30.06 1018 10 16.0934 0 0
11:53 am 11:53 Sunny 67 19.4 42 5.6 41 41 W 7 11 30.04 1017 10 16.0934 0 0
12:53 pm 12:53 Sunny 69 20.6 44 6.7 41 41 VRB 5 7 30.03 1017 10 16.0934 0 0
1:53 pm 13:53 Sunny 70 21.1 42 5.6 37 37 WNW 6 9 30.01 1016 10 16.0934 0 0
2:53 pm 14:53 Sunny 72 22.2 43 6.1 35 35 WSW 6 9 29.99 1016 10 16.0934 0 0
3:53 pm 15:53 Sunny 73 22.8 41 5 32 32 VRB 7 11 29.98 1015 10 16.0934 0 0
4:53 pm 16:53 Sunny 74 23.3 41 5 31 31 SSE 6 9 29.96 1015 10 16.0934 0 0
5:53 pm 17:53 Sunny 74 23.3 41 5 31 31 S 6 9 29.97 1015 10 16.0934 0 0
6:53 pm 18:53 Sunny 71 21.7 43 6.1 36 36 SSE 6 9 29.97 1015 10 16.0934 0 0
7:53 pm 19:53 Clear 62 16.7 53 11.7 73 73 E 7 11 30 1016 10 16.0934 0 0
8:53 pm 20:53 Clear 59 15 51 10.6 75 75 E 6 9 30.01 1016 10 16.0934 0 0
9:53 pm 21:53 Clear 57 13.9 49 9.4 74 74 ESE 7 11 30.02 1017 10 16.0934 0 0
10:53 pm 22:53 Clear 55 12.8 49 9.4 80 80 ESE 5 7 30.01 1016 10 16.0934 0 0
11:53 pm 23:53 Clear 53 11.7 48 8.9 83 83 E 5 7 30.01 1016 10 16.0934 0 0

Powered by AerisWeather